Location: Archemont
(49.1579°N, 1.7598°E)
Time: 10:58:44
(UTC+00:00)

deb Explorer IX - Pass Details

Date: 20 April 2024
Orbit: 513 x 891 km, 38.7° (Epoch: 23 May)

Event Time Altitude Azimuth Distance (km) Brightness Sun altitude
Rises 10:30:27 0° 212° (SSW) 3,370 ? 49.0°
Maximum altitude 10:37:34 18° 154° (SSE) 2,041 ? 49.6°
Drops below altitude 10° 10:41:32 10° 114° (ESE) 2,572 ? 49.9°
Sets 10:44:58 0° 96° (E) 3,519 ? 50.1°
